Theta_e
335 330 326 324 324 323 322 322 321 318 317 319 319 321 320 319 319 319 318 318 317 317 317 317 317 317 316 316 316 315 316 316
325 323 323 321 322 321 321 320 319 319 321 321 322 322 322 320 320 320 320 320 318 318 318 317 317 316 316 316 316 316 317 318
321 320 318 319 319 320 320 319 318 323 324 323 323 323 323 323 321 320 320 319 318 318 318 318 318 316 315 315 316 317 317 318
319 318 318 318 319 319 319 319 320 325 325 325 325 324 325 324 323 321 320 318 318 318 318 318 317 317 315 314 315 315 315 316
318 316 318 318 319 320 319 323 324 326 326 326 325 326 326 325 324 323 320 318 318 318 318 317 316 314 312 311 311 311 312 313
319 318 318 319 320 321 323 324 326 326 327 327 326 326 326 326 324 320 319 318 318 317 316 314 312 310 309 307 306 306 307 307
322 320 319 320 322 323 324 325 326 327 327 327 327 326 326 322 320 319 318 316 315 313 311 310 310 309 307 306 305 304 303 305
324 324 323 322 323 325 325 325 325 326 327 327 325 324 322 320 319 317 314 312 311 310 309 309 308 307 307 305 305 305 305 303
325 325 326 325 323 323 323 324 324 325 326 325 322 322 321 319 316 313 311 310 308 307 306 305 306 305 305 305 305 305 305 304
326 326 325 323 322 320 320 323 322 322 322 322 320 319 317 314 312 309 307 306 306 306 305 305 305 304 305 305 305 304 306 303
325 325 325 324 321 321 320 319 318 318 315 314 312 311 309 309 307 306 306 306 305 303 303 302 303 304 303 303 303 303 304 301
325 325 324 323 320 321 317 314 312 311 311 310 309 308 307 307 307 306 305 303 301 299 301 302 303 304 301 302 300 302 302 300
326 326 326 324 320 314 313 312 310 310 310 309 308 307 307 307 306 304 301 298 296 298 301 302 301 301 301 299 299 303 301 299
327 326 323 320 316 313 312 311 309 309 308 307 306 306 306 305 303 300 297 299 299 299 300 299 300 300 299 299 299 298 300 299
322 318 318 316 314 313 311 310 308 308 306 306 306 306 304 302 299 298 297 298 299 299 299 299 299 299 299 298 299 298 298 297
314 315 314 313 312 312 311 311 312 309 307 306 306 304 301 299 299 298 298 297 298 298 298 299 299 298 297 297 298 297 296 296
312 312 312 312 312 312 312 311 310 308 307 306 304 301 300 299 299 299 299 298 298 298 298 299 298 298 297 296 296 295 295 295
313 313 313 313 312 312 311 310 309 308 307 304 302 300 300 299 299 299 299 298 298 298 298 298 298 297 296 295 294 294 294 293
313 313 312 311 311 310 309 307 306 305 303 302 301 300 300 299 299 299 299 298 297 297 298 297 296 296 295 294 294 293 293 293
311 311 310 310 309 307 305 304 303 302 302 301 300 300 299 299 299 298 298 296 297 296 296 295 294 294 294 293 293 293 293 292
Wind_Speed
17 16 15 14 14 15 14 13 13 13 13 13 13 13 14 13 13 13 12 10 10 11 12 12 12 12 12 14 14 15 15 14
16 16 16 16 15 13 13 13 13 13 13 12 13 12 11 11 11 10 8 7 7 7 8 9 10 11 11 12 12 13 13 12
16 16 15 15 14 13 12 12 13 13 12 10 9 9 8 7 6 6 5 5 4 5 6 6 6 8 10 11 12 13 14 13
16 15 15 15 14 13 12 12 12 11 10 9 7 6 5 4 2 2 2 3 3 4 4 4 6 8 10 10 11 13 13 14
17 15 14 12 11 10 10 10 9 9 8 6 6 5 4 3 2 0 1 2 3 4 4 5 6 7 9 11 12 13 13 12
15 13 11 9 8 7 7 7 7 7 6 6 6 5 4 3 2 1 1 2 3 4 5 5 7 9 11 13 14 13 13 13
13 11 9 7 4 2 4 5 7 8 7 6 6 5 3 2 3 2 1 2 3 5 5 6 8 11 12 14 14 15 16 14
13 11 7 4 1 3 5 9 11 12 10 6 4 2 3 3 3 3 3 5 7 7 7 8 10 12 13 15 16 14 14 16
12 11 9 9 10 10 8 8 8 9 11 5 1 1 2 3 4 5 6 7 8 9 11 12 11 13 13 13 13 13 12 11
16 19 20 19 16 15 16 17 12 5 2 2 3 5 5 6 6 7 7 9 11 12 14 12 12 11 12 13 12 11 6 5
20 22 20 15 12 5 14 5 2 6 10 12 11 10 8 7 7 8 9 12 14 15 14 14 13 12 13 12 11 10 4 5
24 20 13 6 10 4 9 11 13 12 11 10 8 7 6 8 10 12 14 15 14 14 11 10 8 8 13 9 13 9 4 6
21 17 11 9 16 22 19 14 12 9 7 5 4 5 7 10 12 13 15 14 14 13 10 10 10 11 9 13 11 7 5 5
18 15 17 19 21 18 12 14 8 7 5 4 4 6 9 12 14 14 13 10 11 11 11 11 10 9 9 12 5 7 4 11
22 22 21 18 14 12 10 8 6 4 3 1 4 7 11 13 13 11 12 13 11 11 9 8 9 8 6 6 5 4 16 10
20 19 18 17 15 7 5 3 3 3 2 2 4 9 11 12 12 11 12 13 10 9 7 7 6 9 9 7 8 11 6 8
17 15 13 10 7 3 2 1 1 2 2 2 5 10 11 12 12 13 13 13 11 8 6 5 5 7 8 8 9 12 13 10
11 13 9 6 3 2 1 2 3 2 2 5 6 10 12 13 14 16 15 13 11 9 8 7 7 7 8 9 10 9 11 11
10 9 8 6 4 3 5 5 3 3 6 9 9 11 12 14 16 16 16 15 12 10 8 10 11 10 10 10 9 11 12 10
7 7 6 5 4 6 4 3 4 7 9 11 12 14 15 16 17 19 19 16 13 11 10 12 13 14 14 13 11 11 11 14
Wind_Direction
165 161 160 162 163 158 153 150 143 139 131 127 125 122 116 107 101 98 94 87 78 71 66 60 51 46 40 31 26 26 25 22
166 164 165 165 164 158 157 150 143 136 134 135 134 124 115 106 104 102 96 84 69 55 46 38 38 30 26 22 19 15 11 11
173 170 167 166 162 161 157 152 144 143 144 144 135 129 120 114 111 101 97 82 49 26 6 2 16 17 13 7 4 3 354 350
178 174 169 165 164 164 163 159 155 156 157 158 152 144 143 144 144 112 90 67 31 2 359 11 10 5 7 7 7 354 348 340
179 175 168 167 168 167 163 165 169 176 184 184 180 187 195 192 211 352 112 60 47 46 23 9 3 13 15 8 356 348 342 336
176 173 166 170 169 176 175 183 201 212 215 220 229 232 241 239 221 163 99 50 37 20 8 17 13 8 0 355 355 354 346 334
180 177 174 166 169 213 250 254 253 251 256 257 266 259 235 176 143 129 76 38 33 30 16 1 351 348 347 347 345 343 339 333
185 179 169 151 128 337 313 284 281 285 280 272 232 222 174 160 137 107 59 39 23 6 352 343 339 334 332 331 329 333 333 327
175 136 120 107 85 68 24 349 325 268 254 250 159 133 161 135 101 69 42 23 11 359 350 340 332 326 321 321 324 327 332 335
138 129 117 92 81 32 353 338 326 336 5 86 108 112 100 97 77 57 34 12 358 348 341 332 323 322 322 324 324 328 334 348
146 136 116 78 59 16 310 288 130 126 109 101 104 105 102 82 58 37 15 1 351 346 339 336 329 329 328 323 323 316 308 346
141 134 127 80 320 268 158 145 135 130 117 110 112 98 73 47 35 18 4 357 353 350 347 339 329 329 321 301 311 281 232 335
162 161 176 201 148 158 154 158 148 137 127 119 104 70 49 30 18 4 357 359 358 354 345 338 334 339 326 316 301 229 273 321
154 161 146 155 161 163 159 159 165 154 136 144 93 50 30 15 2 357 1 360 353 350 348 338 329 342 335 318 316 287 297 321
144 148 151 161 172 172 159 155 148 162 166 105 61 31 8 358 353 354 355 354 348 345 342 339 329 329 357 328 308 304 325 314
145 153 160 169 172 175 193 218 203 216 200 105 26 6 354 348 340 335 335 335 329 325 323 315 310 310 317 303 287 289 292 300
148 148 153 157 178 174 249 276 8 98 107 23 347 345 342 338 322 315 310 307 307 298 292 283 265 291 297 301 299 297 288 290
158 159 165 173 182 206 237 83 93 103 309 320 319 335 330 329 318 308 294 294 289 280 280 267 262 275 281 292 293 298 303 296
176 174 165 155 135 108 86 72 50 334 314 314 316 316 317 320 315 305 295 295 290 292 287 297 300 294 297 300 296 293 295 286
182 167 157 137 115 99 79 32 329 307 303 304 302 307 310 316 314 308 302 296 287 286 289 298 305 303 296 299 295 295 296 300